Retour au catalogue

STARLINK-34965

ActifCommunicationsSSO
NORAD 65186·PAYLOAD·🇺🇸 United States

Lancé Aug 14, 2025 depuis Vandenberg Space Force Base

Loading…

Prochains Passages (prochaines 24 heures)

TLE

FraisSource: CelesTrak SupGP

Époque: Sep 14, 2026, 22:40 UTC

1 65186C 25175N   26257.94493056  .00062869  00000+0  19514-2 0  2577
2 65186  97.2845 127.0655 0001569  98.1899 332.6037 15.33410440    14

Suivez STARLINK-34965 en temps réel avec AllMySat

Download on the App Store